Weather History for Teterboro, NJ

Change the Weather History Date:

Tuesday, January 22, 2013

  Actual Average Record
Temperature  
Mean Temperature 20 °F -  
Max Temperature 26 °F 34 °F 53 °F (1993)
Min Temperature 12 °F 20 °F 5 °F (2005)
Degree Days  
Heating Degree Days 45    
Moisture  
Dew Point 1 °F    
Average Humidity 44    
Maximum Humidity 62    
Minimum Humidity 29    
Precipitation  
Precipitation 0.00 in - - ()
Sea Level Pressure  
Sea Level Pressure 30.04 in    
Wind  
Wind Speed 14 mph (WNW)    
Max Wind Speed 20 mph    
Max Gust Speed 29 mph    
Visibility 10 miles    
Events      
Averages and records for this station are not official NWS values.
T = Trace of Precipitation, MM = Missing Value Source: NWS Daily Summary

Daily Weather History Graph

Daily Weather History Graph

Search for Another Location

Airport:

Trip Planner

Search our weather history database for the weather conditions in past years. The results will help you decide how hot, cold, wet, or windy it might be!

Date:

Astronomy

Jan. 22, 2013 Rise Set
Actual Time 7:14 AM EST 5:01 PM EST
Civil Twilight 6:44 AM EST 5:31 PM EST
Nautical Twilight 6:11 AM EST 6:04 PM EST
Astronomical Twilight 5:38 AM EST 6:37 PM EST
Moon 1:22 PM EST (1/22) 3:34 AM EST (1/22)
Length of Visible Light 10h 46m
Length of Day
9h 47m
Waxing Gibbous, 82% of the Moon is Illuminated
Jan 22
Waxing Gibbous
Jan 26
Full
Feb 3
Last Quarter
Feb 10
New
Feb 17
First Quarter

Hourly Weather History & Observations

Time (EST) Temp. Windchill Dew Point Humidity Pressure Visibility Wind Dir Wind Speed Gust Speed Precip Events Conditions
12:51 AM 26.1 °F 15.0 °F 10.0 °F 51% 29.84 in 10.0 mi WNW 12.7 mph - N/A   Partly Cloudy
1:51 AM 24.8 °F 12.9 °F 6.8 °F 46% 29.85 in 10.0 mi West 13.8 mph 18.4 mph N/A   Clear
2:51 AM 24.1 °F 11.0 °F 5.0 °F 44% 29.88 in 10.0 mi WNW 16.1 mph 25.3 mph N/A   Scattered Clouds
3:51 AM 23.0 °F 11.7 °F 3.9 °F 44% 29.89 in 10.0 mi WNW 11.5 mph - N/A   Partly Cloudy
4:51 AM 21.9 °F 9.8 °F 5.0 °F 48% 29.91 in 10.0 mi WNW 12.7 mph 20.7 mph N/A   Scattered Clouds
5:51 AM 21.0 °F 6.2 °F 5.0 °F 50% 29.95 in 10.0 mi NW 18.4 mph 26.5 mph N/A   Mostly Cloudy
6:51 AM 19.9 °F 7.3 °F 9.0 °F 62% 29.98 in 10.0 mi NW 12.7 mph 18.4 mph N/A   Mostly Cloudy
7:51 AM 19.9 °F 7.9 °F 3.9 °F 50% 30.00 in 10.0 mi NW 11.5 mph 20.7 mph N/A   Clear
8:51 AM 19.0 °F 8.2 °F 3.0 °F 50% 30.03 in 10.0 mi NW 9.2 mph - N/A   Overcast
9:51 AM 19.9 °F 5.7 °F 8.1 °F 60% 30.04 in 10.0 mi WNW 16.1 mph 23.0 mph 0.00 in   Overcast
10:51 AM 21.0 °F 7.1 °F -0.9 °F 38% 30.04 in 10.0 mi WNW 16.1 mph 25.3 mph N/A   Clear
11:51 AM 21.9 °F 7.3 °F -0.9 °F 37% 30.03 in 10.0 mi West 18.4 mph 28.8 mph N/A   Scattered Clouds
12:51 PM 21.9 °F 7.3 °F -5.1 °F 30% 30.01 in 10.0 mi West 18.4 mph 28.8 mph N/A   Clear
1:51 PM 21.9 °F 7.8 °F -6.0 °F 29% 30.01 in 10.0 mi West 17.3 mph 26.5 mph N/A   Clear
2:51 PM 21.9 °F 8.2 °F -6.0 °F 29% 30.03 in 10.0 mi West 16.1 mph 23.0 mph N/A   Clear
3:51 PM 19.9 °F 4.8 °F -4.0 °F 35% 30.05 in 10.0 mi West 18.4 mph 26.5 mph N/A   Partly Cloudy
4:51 PM 19.0 °F 5.0 °F -0.0 °F 43% 30.09 in 10.0 mi WNW 15.0 mph - N/A   Mostly Cloudy
5:51 PM 18.0 °F 4.8 °F -0.0 °F 45% 30.12 in 10.0 mi WNW 12.7 mph - N/A   Clear
6:51 PM 17.1 °F 3.0 °F 1.0 °F 50% 30.14 in 10.0 mi WNW 13.8 mph 19.6 mph N/A   Clear
7:51 PM 16.0 °F 2.3 °F 1.9 °F 54% 30.17 in 10.0 mi West 12.7 mph - N/A   Clear
8:51 PM 16.0 °F 0.6 °F -2.9 °F 43% 30.18 in 10.0 mi NW 16.1 mph 23.0 mph N/A   Scattered Clouds
9:51 PM 15.1 °F -2.0 °F -6.0 °F 39% 30.20 in 10.0 mi WNW 19.6 mph 26.5 mph N/A   Clear
10:51 PM 14.0 °F -2.5 °F -8.0 °F 37% 30.21 in 10.0 mi WNW 17.3 mph - N/A   Clear
11:51 PM 12.9 °F 0.7 °F -7.1 °F 41% 30.20 in 10.0 mi WNW 9.2 mph 23.0 mph N/A   Clear